Parma, Italy

4:51 AM CEST on June 23, 2017 (GMT +0200)
Parma

Weather History for LIMP - December, 2012

Change the Weather History Date:

Sunday, December 9, 2012

  Actual Average (LIMS) Record (LIMS)
Temperature  
Mean Temperature 26 °F -  
Max Temperature 37 °F 44 °F 59 °F (2006)
Min Temperature 15 °F 33 °F 19 °F (2012)
Degree Days  
Heating Degree Days 39    
Moisture  
Dew Point 24 °F    
Average Humidity 86    
Maximum Humidity 100    
Minimum Humidity 65    
Precipitation  
Precipitation 0.00 in - - ()
Sea Level Pressure  
Sea Level Pressure 30.10 in    
Wind  
Wind Speed 3 mph ()    
Max Wind Speed 6 mph    
Max Gust Speed -    
Averages and records for this station are not official NWS values.
T = Trace of Precipitation, MM = Missing Value Source: Averaged Metar Reports

Daily Weather History Graph

Daily Weather History Graph

Search for Another Location

Airport or City:

Trip Planner

Search our weather history database for the weather conditions in past years. The results will help you decide how hot, cold, wet, or windy it might be!

Date:

Astronomy

Dec. 09, 2012 Rise Set
Actual Time 7:44 AM CET 4:37 PM CET
Civil Twilight 7:11 AM CET 5:11 PM CET
Nautical Twilight 6:34 AM CET 5:48 PM CET
Astronomical Twilight 5:58 AM CET 6:23 PM CET
Moon 2:49 AM CET (12/9) 1:41 PM CET (12/9)
Length of Visible Light 9h 59m
Length of Day
8h 53m
Waning Crescent, 21% of the Moon is Illuminated
Dec 9
Waning Crescent
Dec 13
New
Dec 20
First Quarter
Dec 28
Full
Jan 5
Last Quarter

Hourly Weather History & Observations

Time (CET) Temp. Windchill Dew Point Humidity Pressure Visibility Wind Dir Wind Speed Gust Speed Precip Events Conditions
6:00 AM 19.4 °F 14.3 °F 17.6 °F 93% 30.15 in - Variable 3.5 mph - N/A   Clear
6:50 AM 19.4 °F 11.5 °F 19.4 °F 100% 30.15 in - WNW 5.8 mph - N/A   Clear
7:50 AM 15.8 °F 10.2 °F 14.0 °F 93% 30.15 in - Variable 3.5 mph - N/A   Clear
8:50 AM 21.2 °F 13.6 °F 21.2 °F 100% 30.15 in - South 5.8 mph - N/A   Clear
9:50 AM 26.6 °F 20.0 °F 24.8 °F 93% 30.18 in - SW 5.8 mph - N/A   Clear
10:50 AM 32.0 °F 26.4 °F 26.6 °F 80% 30.18 in - SW 5.8 mph - N/A   Clear
11:50 AM 33.8 °F 29.6 °F 26.6 °F 75% 30.15 in - West 4.6 mph - N/A   Clear
12:50 PM 33.8 °F 30.8 °F 28.4 °F 81% 30.15 in - Variable 3.5 mph - N/A   Clear
1:50 PM 33.8 °F 30.8 °F 28.4 °F 81% 30.15 in - Variable 3.5 mph - N/A   Clear
2:50 PM 35.6 °F - 26.6 °F 70% 30.12 in - Variable 2.3 mph - N/A   Clear
3:50 PM 37.4 °F - 26.6 °F 65% 30.09 in - Variable 1.2 mph - N/A   Clear
4:50 PM 30.2 °F - 26.6 °F 86% 30.09 in - Variable 1.2 mph - N/A   Clear
5:50 PM 28.4 °F - 26.6 °F 93% 30.06 in - Variable 1.2 mph - N/A   Clear
6:50 PM 26.6 °F - 24.8 °F 93% 30.06 in - Calm Calm - N/A   Clear
7:50 PM 28.4 °F 23.3 °F 24.8 °F 86% 30.04 in - South 4.6 mph - N/A   Clear
8:50 PM 26.6 °F 21.2 °F 23.0 °F 86% 30.04 in - South 4.6 mph - N/A   Clear
9:50 PM 26.6 °F 20.0 °F 23.0 °F 86% 30.01 in - South 5.8 mph - N/A   Clear
10:50 PM 26.6 °F 22.6 °F 21.2 °F 80% 30.01 in - Variable 3.5 mph - N/A   Clear
11:50 PM 23.0 °F - 19.4 °F 86% 29.98 in - Calm Calm - N/A   Clear